GEFSSGP_500_meanwind_006.txt.gz
Wind_Speed
6 4 3 2 2 2 3 5 7 5 2 2 2 4 4 4 3 2 4 5 6 6 6 8 10 12 13 13 14 13 12 10 9 9 11 9 6 4 3 3 3 4 6 7 10 12 11 11 11
5 5 3 2 2 2 4 6 9 8 4 2 3 4 4 2 0 0 2 4 6 7 7 8 10 12 13 12 13 12 12 11 10 12 11 9 5 3 3 4 5 7 8 9 11 12 13 12 12
3 2 2 1 5 5 8 8 8 8 7 5 3 4 4 2 2 2 1 4 6 8 8 8 11 12 13 13 12 12 11 11 11 11 9 8 5 4 4 6 7 8 9 10 10 12 13 14 13
2 1 3 3 5 6 10 12 10 7 7 8 7 4 3 3 1 1 2 6 8 8 7 9 12 13 14 14 13 12 11 12 11 9 7 7 5 2 3 4 8 10 11 11 12 13 14 14 14
1 3 5 5 6 8 10 14 14 12 8 8 9 8 6 3 2 2 3 7 9 9 8 10 12 13 13 15 15 13 12 11 10 8 7 7 6 4 3 5 7 12 15 14 14 15 15 15 15
3 5 4 2 8 10 10 11 15 16 13 9 9 10 9 6 5 5 6 6 9 9 9 10 13 14 15 15 16 15 14 13 12 10 8 9 8 6 6 6 6 10 14 15 16 16 16 16 16
5 6 4 7 10 12 13 12 13 16 16 12 7 9 9 6 7 6 7 8 8 10 11 14 15 16 17 17 17 17 17 15 14 13 11 10 10 9 8 8 7 8 11 13 15 16 16 15 15
8 8 8 9 10 12 15 15 14 15 16 14 9 9 9 7 8 7 7 9 10 13 14 17 18 16 17 18 18 19 18 17 15 13 12 11 12 10 9 8 7 7 9 11 14 16 16 16 16
11 11 11 12 11 12 14 17 17 16 16 15 12 9 8 6 6 6 6 8 11 14 17 21 22 17 16 18 20 20 19 17 16 15 13 13 12 10 8 7 7 7 8 10 12 14 15 15 16
15 14 13 13 14 15 17 18 19 19 17 13 11 8 5 3 3 4 6 9 13 17 20 22 21 19 18 19 20 21 20 18 17 17 15 14 11 10 8 7 8 8 8 9 10 12 14 14 15
19 17 15 14 15 16 20 21 20 19 18 12 9 6 3 2 2 5 8 11 15 19 21 23 21 21 21 21 21 21 21 20 18 18 17 14 11 9 7 7 8 9 8 7 7 8 11 15 15
21 20 15 14 16 16 20 22 20 18 16 11 7 5 4 6 7 9 12 14 18 21 23 23 22 20 21 22 20 20 21 21 19 18 16 12 10 9 8 8 9 8 7 6 6 6 8 12 14
23 22 20 20 19 16 20 22 20 17 14 10 7 6 5 7 10 13 15 19 22 23 24 25 25 21 21 19 19 18 19 19 17 16 14 11 10 10 10 9 10 9 8 6 6 7 6 9 11
26 26 26 26 25 19 20 20 18 14 11 12 10 9 8 10 12 14 18 22 24 24 24 27 26 24 23 21 19 18 17 17 15 14 12 11 10 11 11 10 11 11 9 7 7 8 6 7 8
31 30 28 23 21 19 18 20 15 12 11 12 12 13 13 14 16 18 21 23 25 23 22 26 25 23 22 21 18 16 16 16 14 13 14 11 10 12 12 11 13 13 12 9 10 10 7 8 8
34 27 23 23 22 19 17 17 17 12 10 11 12 14 16 17 19 22 24 25 25 25 23 22 24 23 22 21 15 13 15 16 14 13 14 12 11 13 13 13 15 14 12 10 11 11 9 9 7
30 24 21 23 24 21 17 12 15 13 11 11 12 14 16 18 20 23 25 27 27 27 25 22 23 23 22 19 18 16 15 16 15 14 14 14 13 14 15 16 16 14 13 12 13 12 9 10 8
25 21 21 22 20 19 17 13 14 14 13 12 13 14 16 18 20 22 25 27 28 28 25 22 21 19 17 18 19 17 16 16 17 17 17 16 17 18 19 18 17 16 15 14 13 13 13 13 10
29 24 19 16 15 17 17 16 16 16 15 14 15 16 18 19 19 22 25 26 27 27 24 20 17 15 15 16 18 17 16 18 20 22 23 21 20 22 23 22 19 17 15 14 14 14 16 13 11
27 19 15 14 17 19 19 17 17 17 14 14 16 16 19 20 20 22 25 26 27 26 23 20 18 18 18 19 20 19 20 20 21 22 22 22 21 23 25 23 21 20 19 16 16 18 17 14 12
22 19 18 20 21 23 23 19 18 17 14 13 14 15 18 21 22 23 24 25 26 26 23 21 21 23 23 22 22 21 21 21 21 22 22 23 23 24 25 25 24 22 23 21 20 20 19 18 14
20 22 23 24 24 24 25 21 19 21 17 14 12 13 15 19 23 25 26 25 24 23 22 23 24 25 25 24 22 20 20 21 22 21 21 23 24 26 27 26 23 23 24 22 22 23 22 19 17
22 24 25 25 26 25 25 25 20 22 19 16 12 12 15 19 23 27 29 27 25 24 24 25 26 27 26 24 22 20 20 20 20 19 21 23 23 25 27 26 24 24 25 24 22 23 22 20 19
21 21 22 24 24 23 23 24 20 21 19 17 14 16 19 22 25 26 27 27 26 25 25 26 26 25 25 24 23 23 21 19 19 19 22 23 23 25 27 26 27 27 27 26 23 23 22 19 19
22 21 21 22 23 20 22 23 20 19 20 20 20 20 22 25 28 27 26 26 26 26 24 22 21 21 21 21 22 22 21 18 17 17 20 22 23 26 28 27 29 27 26 27 26 27 27 24 22
21 20 21 22 24 24 24 24 20 21 22 23 23 23 24 27 30 29 28 27 26 24 20 19 19 19 18 18 19 19 18 17 16 16 18 19 21 26 27 26 28 28 27 27 27 27 27 26 25
22 20 22 25 26 26 25 25 24 24 24 24 24 25 28 29 29 28 29 28 22 18 16 16 18 18 17 16 15 15 16 16 16 17 18 19 20 22 25 25 26 27 30 31 31 30 29 28 27
20 20 21 23 24 24 23 23 24 24 24 25 26 27 30 30 29 27 26 24 18 15 15 16 17 17 17 16 14 14 14 15 16 18 19 20 21 22 25 26 26 27 29 30 30 31 31 32 31
19 20 21 22 23 24 24 23 22 24 26 27 26 28 30 27 24 23 19 17 15 15 15 16 16 16 16 16 16 15 16 16 17 18 20 21 22 23 25 27 29 29 29 29 28 28 27 27 27
21 19 20 22 25 27 27 25 22 24 26 26 28 29 28 23 22 22 18 16 15 16 16 17 17 16 17 17 17 17 17 18 18 18 19 21 23 23 24 25 26 27 27 26 25 24 21 22 23

GEFSSGP_500_meanwind_012.txt.gz
Wind_Speed
3 2 2 3 5 6 7 7 7 7 6 4 4 5 5 5 6 5 2 0 4 6 8 9 10 12 12 13 13 12 11 8 6 6 8 8 8 8 7 7 5 3 2 2 7 11 11 10 10
3 2 1 3 6 7 8 8 7 6 6 5 6 6 6 5 4 3 2 1 1 4 6 7 9 11 12 13 14 14 11 9 7 7 7 7 8 8 8 8 6 4 3 1 2 5 6 6 7
3 1 1 2 6 8 8 8 6 6 5 6 8 8 7 5 4 3 2 1 2 2 3 5 7 10 11 13 15 15 13 10 8 8 7 7 8 8 8 9 8 6 5 4 3 3 4 6 7
2 1 3 4 7 10 10 8 5 4 5 6 8 9 9 8 5 4 2 2 3 3 4 5 8 10 11 13 14 16 15 11 9 9 8 7 7 8 8 8 8 8 7 6 6 6 6 7 8
2 2 4 5 9 11 12 11 9 7 7 7 8 9 10 10 8 5 4 4 4 5 6 7 9 11 13 13 15 17 16 12 10 10 10 9 8 7 8 8 9 10 10 10 10 9 9 9 9
1 3 5 6 9 11 12 12 12 12 12 11 11 10 10 10 9 8 6 5 5 6 8 10 12 14 15 14 15 17 17 14 12 10 10 10 9 8 9 10 11 11 12 13 13 12 11 11 11
2 2 3 5 8 11 11 12 13 13 13 13 12 11 10 11 10 8 7 6 5 6 9 12 13 15 16 15 15 18 18 15 13 12 11 9 8 9 10 11 12 12 12 13 14 14 13 13 13
6 5 4 5 8 11 12 12 13 13 13 15 15 13 12 12 11 9 8 7 6 6 10 12 13 15 16 15 14 17 18 17 14 13 13 11 9 9 10 11 11 11 11 12 14 15 14 14 13
10 10 9 9 10 13 14 15 15 14 14 15 15 14 12 11 10 9 7 6 6 8 11 13 14 16 16 15 14 16 18 17 14 13 14 13 12 10 9 9 10 10 11 12 13 14 14 15 15
13 13 12 13 14 15 15 15 16 17 17 16 15 13 11 9 7 6 5 7 8 11 13 15 16 17 18 17 15 16 17 16 15 14 14 14 13 11 9 9 9 10 11 12 13 13 13 15 16
16 15 14 15 16 17 17 16 17 18 19 18 16 13 9 6 5 5 7 9 10 12 15 16 18 19 20 19 18 16 16 16 16 15 14 14 13 12 10 8 10 10 11 12 12 12 12 13 14
18 17 16 17 18 18 20 20 20 19 19 18 15 12 9 7 7 7 9 12 13 15 17 18 20 21 22 22 21 19 17 15 15 15 13 12 12 12 10 9 9 10 11 12 12 11 11 11 12
21 20 18 19 21 20 22 23 22 22 20 20 16 12 10 10 10 10 12 14 15 16 18 20 21 22 23 23 23 22 18 16 14 14 12 10 11 12 11 10 9 10 11 12 12 10 9 8 9
24 22 21 21 23 23 24 24 23 21 19 20 18 14 13 13 13 13 13 14 15 17 19 21 22 24 24 24 25 23 20 16 12 12 12 11 11 12 12 11 10 11 12 13 12 10 8 6 6
27 25 23 24 26 27 27 25 24 21 19 20 18 16 14 14 14 14 13 14 15 16 18 20 22 24 25 25 24 22 20 16 12 11 12 12 11 13 13 13 12 12 12 13 12 10 9 6 5
30 28 26 27 29 29 28 23 23 22 20 20 18 17 16 16 15 15 15 15 16 17 18 19 21 24 24 24 22 20 18 16 14 12 12 12 12 13 14 14 13 13 13 13 13 12 11 8 6
32 31 30 30 31 31 26 22 22 23 21 20 18 18 18 18 17 17 17 17 17 18 18 19 21 23 24 22 18 15 13 14 14 13 12 12 13 13 14 15 14 14 14 15 14 13 12 9 7
35 34 33 32 33 30 25 21 21 23 22 20 19 20 20 21 21 21 20 19 18 17 18 20 21 23 22 19 16 14 14 15 15 14 13 12 13 13 15 16 16 15 15 16 16 14 13 11 8
36 35 34 34 34 32 27 23 20 20 22 22 21 23 24 23 23 23 22 21 19 18 19 20 21 22 22 20 18 17 17 17 17 16 15 15 15 16 17 18 18 18 18 17 17 15 15 13 10
35 35 34 33 33 31 27 23 19 19 21 23 23 25 25 24 23 23 23 22 21 20 20 21 21 22 22 21 20 19 19 19 19 18 18 18 19 20 21 23 23 22 21 20 19 18 17 16 13
32 31 31 31 30 30 27 23 20 20 23 25 25 25 25 25 24 25 25 23 22 21 21 21 22 22 21 21 21 21 21 21 21 20 21 21 22 23 24 25 27 26 25 23 22 20 19 18 16
30 28 28 26 27 26 26 24 21 23 25 25 24 25 26 26 26 27 27 23 22 22 22 22 21 21 21 22 23 24 24 23 22 22 22 22 22 24 25 27 28 29 29 27 25 22 21 21 19
27 27 27 26 26 25 25 26 23 25 26 24 24 25 26 27 27 28 27 24 23 23 23 22 21 21 21 22 24 24 23 22 22 23 23 23 23 23 24 26 29 30 31 30 28 26 25 24 22
25 25 26 26 25 25 23 26 25 24 25 24 24 25 26 27 28 29 27 26 25 24 24 24 23 22 22 22 21 21 20 20 21 22 24 24 23 22 22 24 27 30 32 32 31 29 28 27 26
22 23 24 25 25 24 23 24 26 24 24 25 25 26 26 27 28 28 27 27 27 27 26 25 24 23 21 20 19 19 18 18 19 20 21 22 20 20 21 24 27 30 32 33 32 31 31 30 28
23 24 25 25 24 24 24 25 26 25 24 25 26 26 27 28 28 28 27 27 27 27 26 25 24 22 20 18 17 17 16 16 16 17 18 19 18 17 19 23 26 29 32 32 32 31 32 30 30
25 25 25 26 26 26 26 26 25 25 25 26 27 28 29 29 28 27 26 26 26 26 25 23 21 20 18 16 15 15 15 15 15 15 16 16 16 16 17 19 23 26 28 31 32 32 32 31 31
27 27 27 27 28 29 28 27 26 25 26 27 28 28 27 27 27 26 26 26 26 25 23 21 19 18 17 15 14 13 13 14 15 16 16 17 17 17 19 20 19 22 24 27 29 32 32 32 32
28 28 28 28 29 29 29 26 24 24 24 25 26 27 27 27 27 26 25 25 25 25 23 21 19 18 17 16 15 14 14 15 16 16 17 18 18 19 20 20 21 23 25 27 30 32 33 32 32
33 31 30 30 29 28 28 26 23 23 24 26 28 29 28 27 25 24 23 24 25 24 23 20 18 18 18 18 17 17 17 18 18 18 19 19 20 20 20 21 22 23 24 26 28 30 32 32 33

GEFSSGP_500_meanwind_018.txt.gz
Wind_Speed
4 5 6 6 7 7 7 7 6 5 2 2 3 4 5 6 7 7 5 5 2 1 3 5 7 8 9 10 11 10 7 6 6 6 6 6 7 6 5 4 4 4 4 4 1 9 14 17 18
6 6 6 6 6 6 6 7 6 5 4 1 1 2 3 4 5 5 5 6 4 1 2 4 7 8 9 10 10 11 9 6 7 7 8 7 6 6 5 4 3 3 2 2 1 6 10 14 15
7 7 7 6 6 5 5 6 7 6 6 4 3 3 3 3 3 5 6 7 5 3 3 4 7 9 10 10 10 10 9 7 7 8 9 8 6 5 4 3 3 3 3 1 2 4 7 9 11
8 8 7 7 6 6 6 7 7 8 7 7 6 5 4 4 3 5 7 7 5 4 3 4 7 10 11 11 10 10 11 9 8 9 10 9 7 5 4 4 3 4 5 5 4 4 6 7 8
8 8 7 6 5 5 7 8 9 10 9 8 8 7 6 5 5 6 7 7 5 4 2 4 7 10 12 12 11 10 11 11 10 9 10 9 8 6 6 5 6 6 7 7 7 7 6 7 7
9 9 7 5 4 4 6 7 8 10 10 10 10 9 8 7 6 6 7 7 6 3 2 4 8 10 11 12 11 11 12 12 12 10 10 9 8 7 7 8 8 8 8 9 9 10 9 8 8
9 8 5 2 1 4 6 7 7 9 10 11 11 10 9 8 6 6 6 7 6 4 2 4 7 9 11 11 11 11 12 13 13 11 10 10 8 7 8 9 10 10 10 10 11 11 12 11 10
9 7 5 3 3 4 6 8 8 10 11 12 12 12 10 8 5 4 5 6 6 5 3 5 7 9 11 12 11 11 12 14 14 12 11 10 9 9 10 10 11 10 10 11 11 12 13 13 13
10 8 7 6 6 5 6 8 10 10 12 12 12 12 11 9 6 3 4 5 5 5 3 5 7 9 11 12 12 12 13 15 15 14 13 12 10 10 11 12 12 11 10 11 11 11 12 13 14
12 10 9 8 8 8 7 8 11 12 13 13 13 12 11 9 6 3 3 4 5 4 5 6 8 9 11 12 13 13 14 15 15 15 15 13 11 11 12 13 13 12 10 10 11 11 12 13 14
14 12 11 11 11 11 10 10 12 14 15 14 14 14 12 9 7 5 4 5 5 6 7 8 9 10 11 13 14 14 15 15 15 15 16 14 12 12 13 14 14 12 11 10 11 11 11 12 13
17 15 14 13 13 13 13 13 15 17 17 17 16 15 13 10 9 8 8 8 8 9 9 10 10 11 11 12 14 15 15 15 14 14 15 14 12 12 12 14 14 13 11 11 11 10 10 11 12
19 18 17 16 15 15 15 15 17 20 20 20 18 17 15 13 11 11 12 12 12 12 12 13 12 13 13 13 14 15 15 15 15 14 13 13 13 12 12 13 14 13 11 11 11 11 10 10 11
22 21 20 19 18 17 17 17 19 22 22 22 20 18 17 15 14 14 14 15 15 16 16 16 15 15 15 14 15 15 15 15 15 14 13 13 13 12 12 13 14 14 13 12 12 11 10 10 10
24 24 23 22 21 20 19 18 21 23 23 23 21 20 19 17 16 15 16 17 18 19 19 18 18 17 17 17 17 17 16 16 15 14 13 13 13 12 13 13 14 14 14 13 13 12 11 10 10
27 26 26 25 25 24 22 20 22 23 24 23 22 21 21 20 18 17 18 19 19 20 21 20 20 19 19 18 18 18 17 16 15 14 13 13 13 13 13 14 15 15 15 14 14 13 12 11 10
31 30 29 28 28 27 26 24 25 25 24 23 22 22 23 22 21 20 19 20 21 21 22 22 21 21 21 20 19 18 17 16 15 15 15 15 14 13 14 15 15 16 15 15 14 14 13 12 11
35 34 33 32 32 30 29 28 27 26 25 24 23 23 24 23 22 21 21 21 21 21 22 22 22 23 23 21 19 18 18 19 18 18 17 16 15 14 14 14 16 16 16 16 16 16 15 14 12
39 38 36 36 35 33 32 30 28 27 26 26 25 24 25 25 23 22 22 22 22 21 22 23 24 24 24 23 20 19 19 21 22 21 19 18 17 16 15 14 15 16 17 17 17 18 17 16 14
40 39 38 37 36 35 33 31 29 28 27 27 27 25 25 25 25 24 23 23 22 22 23 24 24 25 25 24 23 22 22 23 24 23 22 22 20 19 18 16 16 16 18 19 20 20 19 18 17
38 37 36 36 34 33 31 29 29 28 29 29 28 27 26 25 25 24 24 23 23 23 25 25 25 26 26 26 26 26 25 26 26 26 26 25 24 22 21 19 19 19 20 21 23 22 22 21 20
34 34 34 33 32 32 31 30 28 27 28 29 29 28 26 25 25 26 26 25 25 25 25 25 25 27 28 28 28 28 29 29 29 29 28 27 26 25 24 23 22 23 23 24 26 26 26 24 23
29 30 31 31 31 31 30 29 26 25 26 27 28 28 27 25 25 26 26 26 26 26 26 26 27 28 29 29 29 30 30 31 31 30 30 29 29 28 26 25 25 26 28 28 28 29 29 28 26
28 28 29 28 28 28 27 27 27 25 25 25 26 26 26 24 24 24 25 26 26 27 27 27 27 27 28 29 30 30 31 31 31 29 29 28 28 28 27 27 27 27 28 30 31 30 30 31 29
27 27 26 26 25 25 26 26 26 26 23 22 22 23 22 22 22 23 24 25 26 27 27 27 27 27 27 28 29 29 29 28 28 27 26 26 26 26 26 26 27 27 28 30 30 31 32 33 33
27 26 26 25 24 24 24 23 21 21 21 19 18 19 20 21 22 23 24 25 26 27 26 25 26 26 27 27 26 25 24 24 24 24 23 22 22 22 22 23 24 24 24 26 28 31 34 34 35
27 27 27 26 26 26 25 23 19 18 18 18 18 19 20 22 23 24 24 25 25 25 25 24 24 25 26 25 24 22 21 20 20 20 19 18 18 18 18 19 20 21 22 22 24 29 32 35 35
26 27 27 26 26 27 27 25 20 18 17 18 19 20 21 22 22 22 22 22 22 23 23 23 23 23 24 24 23 21 20 19 18 17 16 16 16 17 17 17 18 19 21 22 23 27 31 34 36
25 26 27 28 28 27 26 24 21 16 16 17 18 19 20 20 21 21 22 22 22 22 22 21 21 22 23 23 22 21 20 19 18 16 16 15 15 16 17 17 17 18 19 20 21 23 28 32 34
26 26 27 28 28 28 28 25 23 21 20 21 21 22 22 22 22 22 22 23 22 22 21 20 21 22 23 22 21 20 20 20 20 19 18 17 17 17 18 18 18 18 19 20 20 21 23 28 32

GEFSSGP_500_meanwind_024.txt.gz
Wind_Speed
6 5 5 5 2 4 7 7 7 5 3 3 5 8 8 8 9 9 9 8 6 4 3 6 9 12 13 14 13 13 13 11 9 7 7 7 8 8 8 6 5 4 3 3 2 5 12 18 19
7 5 4 3 5 7 7 8 8 7 5 4 5 8 9 9 10 10 10 8 7 6 4 5 8 11 12 13 12 12 13 12 10 8 8 8 9 8 8 6 5 4 4 3 1 3 8 15 18
7 6 4 3 7 7 8 9 9 9 7 6 6 8 9 10 10 10 9 9 8 7 5 5 7 10 11 12 11 11 12 13 11 9 9 9 9 8 7 6 6 5 4 3 2 2 5 11 15
8 6 5 6 7 6 7 8 9 9 7 7 7 8 9 10 10 9 9 9 8 7 6 5 6 8 10 11 11 11 12 13 12 10 10 10 9 8 7 6 6 5 4 3 2 1 3 7 12
9 8 6 6 6 5 6 7 8 8 9 9 9 9 9 9 9 9 9 8 8 8 7 5 6 7 9 10 10 11 11 12 12 11 10 10 10 9 7 6 6 6 5 3 2 2 3 5 8
9 8 6 4 3 3 4 5 7 8 8 8 10 10 9 8 8 8 8 8 8 8 7 6 6 7 9 9 10 11 12 12 13 13 12 11 11 9 8 7 7 6 6 5 5 5 5 6 7
10 9 7 4 3 1 3 5 7 9 10 11 11 11 10 9 8 7 7 8 8 9 8 6 6 7 8 9 9 11 12 12 13 14 13 13 12 11 9 8 8 7 7 7 7 8 8 9 9
12 11 9 6 5 3 2 4 6 8 10 11 12 12 11 9 8 6 5 6 7 8 8 7 7 7 8 8 9 11 12 13 14 15 15 14 13 12 11 9 9 8 8 8 8 9 11 12 12
14 12 10 8 8 6 6 6 6 8 10 10 12 13 12 11 9 6 4 5 7 8 8 8 8 8 8 8 9 11 12 14 15 16 15 15 14 13 12 11 10 10 9 9 9 10 11 13 14
15 14 11 11 10 9 9 9 10 10 11 11 11 12 12 12 10 7 5 5 6 7 8 9 9 9 9 9 10 11 12 13 14 15 15 15 14 14 13 12 11 11 10 10 9 10 12 13 14
18 17 15 13 12 12 12 12 12 13 13 14 14 12 12 12 11 9 7 7 7 8 9 10 11 11 11 11 11 12 13 14 14 15 16 15 15 14 13 12 12 12 11 10 10 10 12 14 15
20 19 18 16 16 15 15 15 15 15 15 16 17 16 14 13 12 11 10 10 10 10 11 12 13 12 13 13 13 13 13 14 15 16 16 16 16 14 14 13 13 12 12 11 10 11 12 13 14
22 22 21 19 18 18 18 18 18 18 17 18 19 19 18 15 14 12 12 12 12 12 13 14 14 14 14 14 14 14 14 14 14 15 16 16 16 15 15 15 13 13 13 12 11 11 11 12 14
24 24 23 22 22 21 21 21 21 21 21 19 20 21 21 19 17 15 13 13 13 13 13 14 15 14 14 15 15 15 15 15 15 15 15 16 16 16 16 16 15 13 13 13 12 11 12 12 14
24 24 24 24 25 25 26 24 24 25 25 23 22 22 22 21 19 18 17 15 15 14 13 14 14 15 15 16 16 16 16 16 16 15 16 16 17 17 17 17 16 14 13 13 13 13 13 13 13
26 27 27 27 29 29 30 27 27 29 27 26 24 25 24 22 21 20 19 18 17 16 15 15 15 16 16 17 17 18 18 18 17 17 16 16 16 17 18 18 17 15 14 14 14 14 14 14 14
30 30 30 29 31 33 34 31 29 32 30 29 27 27 27 26 24 22 21 20 19 18 18 17 16 17 18 18 18 19 19 19 18 18 18 17 17 18 18 19 18 17 15 15 15 15 15 15 15
34 34 34 34 35 36 36 35 32 34 35 33 31 29 28 28 27 25 22 21 20 19 19 19 19 18 19 19 19 19 20 20 19 19 19 20 19 19 19 20 20 19 17 16 15 16 16 16 16
38 38 37 38 39 39 38 38 36 36 37 37 34 31 29 29 29 29 25 23 22 21 20 20 21 20 20 20 20 21 21 21 20 19 21 22 22 22 22 22 22 20 19 18 16 17 18 18 18
40 41 42 43 43 42 42 41 39 38 37 36 35 32 31 29 29 31 28 25 23 21 21 21 21 21 21 22 21 21 22 22 21 22 22 23 23 24 24 24 24 23 22 20 19 18 19 20 20
40 42 42 42 43 44 45 43 41 40 39 37 37 35 32 30 31 32 29 25 24 22 21 21 21 21 22 22 22 22 22 23 23 23 24 24 25 26 26 25 25 25 23 21 21 21 21 21 21
36 37 38 39 39 40 41 43 37 37 37 36 34 33 31 30 30 32 30 26 25 23 22 21 21 21 21 22 22 23 23 23 24 24 25 26 27 27 27 26 27 26 26 24 24 24 23 22 21
33 34 35 35 36 36 34 36 32 31 32 29 27 29 29 29 29 31 29 27 26 23 22 21 20 20 21 21 22 22 23 23 24 25 26 27 27 27 27 27 27 27 27 27 27 25 25 23 22
31 32 33 33 32 33 30 32 29 24 25 24 22 23 26 27 27 29 27 25 24 22 21 20 20 20 21 21 21 22 23 24 25 26 27 27 27 26 26 26 26 27 28 28 27 25 25 23 23
27 27 28 27 26 25 22 23 23 22 23 21 20 21 22 24 25 24 22 21 20 20 20 20 20 21 21 21 22 22 23 25 25 25 25 25 25 24 24 24 25 26 27 27 27 26 25 24 24
25 23 23 23 23 21 18 17 16 17 18 19 19 20 20 20 22 21 18 18 18 18 19 20 20 21 21 21 22 23 23 24 24 24 23 23 22 21 21 22 23 23 23 24 24 25 24 25 24
26 23 21 23 25 24 22 18 14 13 16 18 20 20 18 18 18 18 16 16 16 17 19 20 20 20 21 21 22 23 22 22 22 22 21 21 20 19 19 19 20 20 20 21 21 21 23 24 25
27 25 23 25 26 23 19 18 19 16 15 13 14 15 16 17 16 17 17 17 17 18 19 20 20 20 21 21 21 22 21 21 21 20 19 19 18 18 18 17 17 18 18 19 20 20 21 21 22
27 25 25 27 25 21 19 21 23 22 20 16 15 15 16 16 17 18 17 17 17 18 19 20 20 21 21 21 21 21 20 20 19 19 18 18 18 18 18 17 17 17 17 18 18 19 19 20 20
27 26 26 27 27 26 25 23 23 24 21 16 14 13 16 17 17 18 18 18 18 18 19 20 21 21 21 22 22 22 21 21 20 19 18 18 19 19 19 19 19 18 18 19 19 20 20 20 19